This is the latest recevied weather packets stored in our database for station/object MB7UUE. If no packets are shown the sender has not sent any weather packets the latest 10 day(s).
| Time | Temp. | Humidity | Pressure | Rain* | Wind** | Luminosity | Snow |
|---|---|---|---|---|---|---|---|
| 1787929146 | 24.44° C | 46% | 1005.1 hPa | 0 mm | - | - | - |
| 1787929138 | 24.44° C | 46% | 1005.1 hPa | 0 mm | - | - | - |
| 1787928007 | 24.44° C | 44% | 1004.6 hPa | 0 mm | - | - | - |
| 1787927997 | 24.44° C | 44% | 1004.6 hPa | 0 mm | - | - | - |
| 1787926866 | 25° C | 41% | 1004.7 hPa | 0 mm | - | - | - |
| 1787926858 | 25° C | 41% | 1004.8 hPa | 0 mm | - | - | - |
| 1787925727 | 25° C | 40% | 1004.9 hPa | 0 mm | - | - | - |
| 1787925717 | 25° C | 40% | 1004.8 hPa | 0 mm | - | - | - |
| 1787924585 | 25° C | 41% | 1004.9 hPa | 0 mm | - | - | - |
| 1787924577 | 25° C | 41% | 1004.8 hPa | 0 mm | - | - | - |
| 1787923447 | 25° C | 39% | 1004.9 hPa | 0 mm | - | - | - |
| 1787923437 | 25° C | 38% | 1004.9 hPa | 0 mm | - | - | - |
| 1787922305 | 25° C | 38% | 1004.9 hPa | 0 mm | - | - | - |
| 1787922297 | 25° C | 38% | 1004.8 hPa | 0 mm | - | - | - |
| 1787921166 | 25° C | 39% | 1004.9 hPa | 0 mm | - | - | - |
| 1787921158 | 25° C | 39% | 1005 hPa | 0 mm | - | - | - |
| 1787920027 | 25° C | 40% | 1005 hPa | 0 mm | - | - | - |
| 1787920017 | 25° C | 40% | 1005 hPa | 0 mm | - | - | - |
| 1787918886 | 24.44° C | 44% | 1005.2 hPa | 0 mm | - | - | - |
| 1787918878 | 24.44° C | 44% | 1005.2 hPa | 0 mm | - | - | - |
| 1787917746 | 23.89° C | 45% | 1005.3 hPa | 0 mm | - | - | - |
| 1787917738 | 23.89° C | 45% | 1005.3 hPa | 0 mm | - | - | - |
| 1787916606 | 23.89° C | 48% | 1005.3 hPa | 0 mm | - | - | - |
| 1787916598 | 23.89° C | 48% | 1005.3 hPa | 0 mm | - | - | - |
| 1787915466 | 22.78° C | 52% | 1005.5 hPa | 0 mm | - | - | - |
* Rain latest hour (hover to see other rain measurements)
** Current wind speed in m/s (hover to see current wind gust speed)